Time,TemperatureF,DewpointF,PressureIn,WindDirection,WindDirectionDegrees,WindSpeedMPH,WindSpeedGustMPH,Humidity,HourlyPrecipIn,Conditions,Clouds,dailyrainin,SoftwareType,DateUTC
2013-07-18 00:02:00,71.7,64.5,29.27,SE,135,0.0,0.0,78,0.00,,,0.00,WUHU216HW,2013-07-18 05:02:00,
2013-07-18 00:07:00,71.4,64.5,29.27,SE,135,0.0,0.0,79,0.00,,,0.00,WUHU216HW,2013-07-18 05:07:00,
2013-07-18 00:12:00,71.4,64.5,29.27,SE,135,0.0,0.0,79,0.00,,,0.00,WUHU216HW,2013-07-18 05:12:00,
2013-07-18 00:17:00,71.4,64.5,29.27,SE,135,0.0,0.0,79,0.00,,,0.00,WUHU216HW,2013-07-18 05:17:00,
2013-07-18 00:22:00,71.4,65.2,29.27,SE,135,0.0,0.0,81,0.00,,,0.00,WUHU216HW,2013-07-18 05:22:00,
2013-07-18 00:27:00,71.4,65.2,29.27,SE,135,0.0,0.0,81,0.00,,,0.00,WUHU216HW,2013-07-18 05:27:00,
2013-07-18 00:32:00,71.7,65.9,29.27,SE,135,0.0,0.0,82,0.00,,,0.00,WUHU216HW,2013-07-18 05:32:00,
2013-07-18 00:37:00,71.7,65.6,29.27,SE,135,0.0,0.0,81,0.00,,,0.00,WUHU216HW,2013-07-18 05:37:00,
2013-07-18 00:42:00,71.7,65.6,29.27,SE,135,0.0,0.0,81,0.00,,,0.00,WUHU216HW,2013-07-18 05:42:00,
2013-07-18 00:47:00,71.7,65.6,29.27,SE,135,0.0,0.0,81,0.00,,,0.00,WUHU216HW,2013-07-18 05:47:00,
2013-07-18 00:52:00,71.9,65.8,29.27,SE,135,0.0,0.0,81,0.00,,,0.00,WUHU216HW,2013-07-18 05:52:00,
2013-07-18 00:57:00,71.9,65.8,29.27,SE,135,0.0,0.0,81,0.00,,,0.00,WUHU216HW,2013-07-18 05:57:00,
2013-07-18 01:02:00,71.9,65.8,29.27,SE,135,0.0,0.0,81,0.00,,,0.00,WUHU216HW,2013-07-18 06:02:00,
2013-07-18 01:07:00,71.7,65.6,29.27,SE,135,0.0,0.0,81,0.00,,,0.00,WUHU216HW,2013-07-18 06:07:00,
2013-07-18 01:12:00,71.7,65.6,29.27,SE,135,0.0,0.0,81,0.00,,,0.00,WUHU216HW,2013-07-18 06:12:00,
2013-07-18 01:17:00,71.6,65.4,29.27,SE,135,0.0,0.0,81,0.00,,,0.00,WUHU216HW,2013-07-18 06:17:00,
2013-07-18 01:22:00,71.6,65.8,29.27,SE,135,0.0,0.0,82,0.00,,,0.00,WUHU216HW,2013-07-18 06:22:00,
2013-07-18 01:27:00,71.6,65.8,29.27,SE,135,0.0,0.0,82,0.00,,,0.00,WUHU216HW,2013-07-18 06:27:00,
2013-07-18 01:32:00,71.4,65.6,29.27,SE,135,0.0,0.0,82,0.00,,,0.00,WUHU216HW,2013-07-18 06:32:00,
2013-07-18 01:37:00,71.4,65.6,29.27,SE,135,0.0,0.0,82,0.00,,,0.00,WUHU216HW,2013-07-18 06:37:00,
2013-07-18 01:42:00,71.2,65.7,29.27,SE,135,0.0,0.0,83,0.00,,,0.00,WUHU216HW,2013-07-18 06:42:00,
2013-07-18 01:47:00,71.2,65.7,29.27,SE,135,0.0,0.0,83,0.00,,,0.00,WUHU216HW,2013-07-18 06:47:00,
2013-07-18 01:52:00,70.8,65.4,29.27,SE,135,0.0,0.0,83,0.00,,,0.00,WUHU216HW,2013-07-18 06:52:00,
2013-07-18 01:57:00,70.5,65.0,29.27,SE,135,0.0,0.0,83,0.00,,,0.00,WUHU216HW,2013-07-18 06:57:00,
2013-07-18 02:02:00,70.3,64.8,29.27,SE,135,0.0,0.0,83,0.00,,,0.00,WUHU216HW,2013-07-18 07:02:00,
2013-07-18 02:07:00,69.9,64.5,29.27,SE,135,0.0,0.0,83,0.00,,,0.00,WUHU216HW,2013-07-18 07:07:00,
2013-07-18 02:12:00,69.8,64.3,29.27,SE,135,0.0,0.0,83,0.00,,,0.00,WUHU216HW,2013-07-18 07:12:00,
2013-07-18 02:17:00,69.6,64.1,29.27,SE,135,0.0,0.0,83,0.00,,,0.00,WUHU216HW,2013-07-18 07:17:00,
2013-07-18 02:22:00,69.4,64.0,29.27,SE,135,0.0,0.0,83,0.00,,,0.00,WUHU216HW,2013-07-18 07:22:00,
2013-07-18 02:27:00,69.2,64.1,29.27,SE,135,0.0,0.0,84,0.00,,,0.00,WUHU216HW,2013-07-18 07:27:00,
2013-07-18 02:32:00,69.2,64.1,29.27,SE,135,0.0,0.0,84,0.00,,,0.00,WUHU216HW,2013-07-18 07:32:00,
2013-07-18 02:37:00,69.4,64.6,29.26,SE,135,0.0,0.0,85,0.00,,,0.00,WUHU216HW,2013-07-18 07:37:00,
2013-07-18 02:42:00,69.4,64.6,29.26,SE,135,0.0,0.0,85,0.00,,,0.00,WUHU216HW,2013-07-18 07:42:00,
2013-07-18 02:48:00,69.4,64.6,29.26,SE,135,0.0,0.0,85,0.00,,,0.00,WUHU216HW,2013-07-18 07:48:00,
2013-07-18 02:53:00,69.2,64.5,29.26,SE,135,0.0,0.0,85,0.00,,,0.00,WUHU216HW,2013-07-18 07:53:00,
2013-07-18 02:58:00,68.9,64.6,29.26,SE,135,0.0,0.0,86,0.00,,,0.00,WUHU216HW,2013-07-18 07:58:00,
2013-07-18 03:03:00,68.9,64.5,29.26,SE,135,0.0,0.0,86,0.00,,,0.00,WUHU216HW,2013-07-18 08:03:00,
2013-07-18 03:08:00,68.7,64.0,29.26,SE,135,0.0,0.0,85,0.00,,,0.00,WUHU216HW,2013-07-18 08:08:00,
2013-07-18 03:13:00,68.7,64.3,29.26,SE,135,0.0,0.0,86,0.00,,,0.00,WUHU216HW,2013-07-18 08:13:00,
2013-07-18 03:18:00,68.5,64.1,29.26,SE,135,0.0,0.0,86,0.00,,,0.00,WUHU216HW,2013-07-18 08:18:00,
2013-07-18 03:23:00,68.5,64.1,29.25,SE,135,0.0,0.0,86,0.00,,,0.00,WUHU216HW,2013-07-18 08:23:00,
2013-07-18 03:28:00,68.5,64.4,29.25,SE,135,0.0,0.0,87,0.00,,,0.00,WUHU216HW,2013-07-18 08:28:00,
2013-07-18 03:33:00,68.7,64.6,29.25,SE,135,0.0,0.0,87,0.00,,,0.00,WUHU216HW,2013-07-18 08:33:00,
2013-07-18 03:38:00,68.7,64.6,29.25,SE,135,0.0,0.0,87,0.00,,,0.00,WUHU216HW,2013-07-18 08:38:00,
2013-07-18 03:43:00,68.3,64.3,29.25,SE,135,0.0,0.0,87,0.00,,,0.00,WUHU216HW,2013-07-18 08:43:00,
2013-07-18 03:48:00,68.3,64.3,29.25,SE,135,0.0,0.0,87,0.00,,,0.00,WUHU216HW,2013-07-18 08:48:00,
2013-07-18 03:53:00,68.1,64.1,29.25,SE,135,0.0,0.0,87,0.00,,,0.00,WUHU216HW,2013-07-18 08:53:00,
2013-07-18 03:58:00,68.1,64.1,29.25,SE,135,0.0,0.0,87,0.00,,,0.00,WUHU216HW,2013-07-18 08:58:00,
2013-07-18 04:03:00,67.8,63.7,29.25,SE,135,0.0,0.0,87,0.00,,,0.00,WUHU216HW,2013-07-18 09:03:00,
2013-07-18 04:08:00,67.8,63.7,29.25,SE,135,0.0,0.0,87,0.00,,,0.00,WUHU216HW,2013-07-18 09:08:00,
2013-07-18 04:13:00,67.8,63.7,29.25,SE,135,0.0,0.0,87,0.00,,,0.00,WUHU216HW,2013-07-18 09:13:00,
2013-07-18 04:18:00,67.6,63.6,29.25,SE,135,0.0,0.0,87,0.00,,,0.00,WUHU216HW,2013-07-18 09:18:00,
2013-07-18 04:23:00,67.6,63.6,29.25,SE,135,0.0,0.0,87,0.00,,,0.00,WUHU216HW,2013-07-18 09:23:00,
2013-07-18 04:28:00,67.6,63.9,29.25,SE,135,0.0,0.0,88,0.00,,,0.00,WUHU216HW,2013-07-18 09:28:00,
2013-07-18 04:33:00,67.6,63.9,29.25,SE,135,0.0,0.0,88,0.00,,,0.00,WUHU216HW,2013-07-18 09:33:00,
2013-07-18 04:38:00,67.2,63.5,29.25,SE,135,0.0,0.0,88,0.00,,,0.00,WUHU216HW,2013-07-18 09:38:00,
2013-07-18 04:43:00,67.6,63.9,29.25,SE,135,0.0,0.0,88,0.00,,,0.00,WUHU216HW,2013-07-18 09:43:00,
2013-07-18 04:48:00,67.4,63.7,29.24,SE,135,0.0,0.0,88,0.00,,,0.00,WUHU216HW,2013-07-18 09:48:00,
2013-07-18 04:53:00,67.6,63.9,29.24,SE,135,0.0,0.0,88,0.00,,,0.00,WUHU216HW,2013-07-18 09:53:00,
2013-07-18 04:58:00,67.6,63.9,29.25,SE,135,0.0,0.0,88,0.00,,,0.00,WUHU216HW,2013-07-18 09:58:00,
2013-07-18 05:03:00,67.2,63.5,29.25,SE,135,0.0,0.0,88,0.00,,,0.00,WUHU216HW,2013-07-18 10:03:00,
2013-07-18 05:08:00,67.1,63.3,29.24,SE,135,0.0,0.0,88,0.00,,,0.00,WUHU216HW,2013-07-18 10:08:00,
2013-07-18 05:13:00,66.9,63.2,29.24,SE,135,0.0,0.0,88,0.00,,,0.00,WUHU216HW,2013-07-18 10:13:00,
2013-07-18 05:18:00,66.7,63.0,29.24,SE,135,0.0,0.0,88,0.00,,,0.00,WUHU216HW,2013-07-18 10:18:00,
2013-07-18 05:23:00,66.7,63.0,29.24,SE,135,0.0,0.0,88,0.00,,,0.00,WUHU216HW,2013-07-18 10:23:00,
2013-07-18 05:28:00,66.7,63.0,29.24,SE,135,0.0,0.0,88,0.00,,,0.00,WUHU216HW,2013-07-18 10:28:00,
2013-07-18 05:33:00,66.5,62.8,29.24,SE,135,0.0,0.0,88,0.00,,,0.00,WUHU216HW,2013-07-18 10:33:00,
2013-07-18 05:38:00,66.5,63.1,29.24,SE,135,0.0,0.0,89,0.00,,,0.00,WUHU216HW,2013-07-18 10:38:00,
2013-07-18 05:43:00,66.5,63.1,29.24,SE,135,0.0,0.0,89,0.00,,,0.00,WUHU216HW,2013-07-18 10:43:00,
2013-07-18 05:48:00,66.5,63.1,29.24,SE,135,0.0,0.0,89,0.00,,,0.00,WUHU216HW,2013-07-18 10:48:00,
2013-07-18 05:53:00,66.3,62.9,29.24,SE,135,0.0,0.0,89,0.00,,,0.00,WUHU216HW,2013-07-18 10:53:00,
2013-07-18 05:58:00,66.3,62.9,29.25,SE,135,0.0,0.0,89,0.00,,,0.00,WUHU216HW,2013-07-18 10:58:00,
2013-07-18 06:03:00,66.0,62.6,29.24,SE,135,0.0,0.0,89,0.00,,,0.00,WUHU216HW,2013-07-18 11:03:00,
2013-07-18 06:09:00,66.0,62.6,29.25,SE,135,0.0,0.0,89,0.00,,,0.00,WUHU216HW,2013-07-18 11:09:00,
2013-07-18 06:14:00,66.0,62.6,29.25,SE,135,0.0,0.0,89,0.00,,,0.00,WUHU216HW,2013-07-18 11:14:00,
2013-07-18 06:19:00,66.0,62.6,29.25,SE,135,0.0,0.0,89,0.00,,,0.00,WUHU216HW,2013-07-18 11:19:00,
2013-07-18 06:50:00,66.7,63.3,29.25,SE,135,0.0,0.0,89,0.00,,,0.00,WUHU216HW,2013-07-18 11:50:00,
2013-07-18 06:55:00,67.1,63.7,29.25,SE,135,0.0,0.0,89,0.00,,,0.00,WUHU216HW,2013-07-18 11:55:00,
2013-07-18 07:00:00,67.8,64.7,29.25,SE,135,0.0,0.0,90,0.00,,,0.00,WUHU216HW,2013-07-18 12:00:00,
2013-07-18 07:05:00,68.1,65.1,29.25,SE,135,0.0,0.0,90,0.00,,,0.00,WUHU216HW,2013-07-18 12:05:00,
2013-07-18 07:10:00,68.3,65.3,29.25,SE,135,0.0,0.0,90,0.00,,,0.00,WUHU216HW,2013-07-18 12:10:00,
2013-07-18 07:15:00,68.3,65.3,29.25,SE,135,0.0,0.0,90,0.00,,,0.00,WUHU216HW,2013-07-18 12:15:00,
2013-07-18 07:20:00,68.3,65.3,29.25,SE,135,0.0,0.0,90,0.00,,,0.00,WUHU216HW,2013-07-18 12:20:00,
2013-07-18 07:25:00,68.3,65.3,29.25,SE,135,0.0,0.0,90,0.00,,,0.00,WUHU216HW,2013-07-18 12:25:00,
2013-07-18 07:30:00,68.3,65.3,29.25,SE,135,0.0,0.0,90,0.00,,,0.00,WUHU216HW,2013-07-18 12:30:00,
2013-07-18 12:13:00,101.8,71.3,29.21,SE,135,5.3,5.3,38,0.00,,,0.00,WUHU216HW,2013-07-18 17:13:00,
2013-07-18 12:18:00,102.7,71.3,29.21,ESE,113,2.0,5.3,37,0.00,,,0.00,WUHU216HW,2013-07-18 17:18:00,
2013-07-18 12:23:00,102.3,70.9,29.21,South,180,0.0,5.3,36,0.00,,,0.00,WUHU216HW,2013-07-18 17:23:00,
2013-07-18 12:28:00,102.7,71.3,29.21,SSE,158,0.0,0.0,37,0.00,,,0.00,WUHU216HW,2013-07-18 17:28:00,
2013-07-18 12:33:00,103.2,70.9,29.21,SSE,158,0.0,0.0,36,0.00,,,0.00,WUHU216HW,2013-07-18 17:33:00,
2013-07-18 12:38:00,103.2,70.9,29.21,SSE,158,0.0,0.0,36,0.00,,,0.00,WUHU216HW,2013-07-18 17:38:00,
2013-07-18 12:43:00,103.2,70.9,29.21,SSE,158,0.0,0.0,36,0.00,,,0.00,WUHU216HW,2013-07-18 17:43:00,
2013-07-18 12:48:00,103.2,70.9,29.20,SSE,158,0.0,0.0,36,0.00,,,0.00,WUHU216HW,2013-07-18 17:48:00,
2013-07-18 12:53:00,103.2,70.9,29.20,SSE,158,0.0,0.0,36,0.00,,,0.00,WUHU216HW,2013-07-18 17:53:00,
2013-07-18 13:38:00,100.5,70.2,29.19,SE,135,6.7,6.7,38,0.00,,,0.00,WUHU216HW,2013-07-18 18:38:00,
2013-07-18 13:43:00,100.5,70.2,29.18,SE,135,6.7,6.7,38,0.00,,,0.00,WUHU216HW,2013-07-18 18:43:00,
2013-07-18 13:48:00,100.9,69.7,29.18,WSW,248,8.0,8.0,37,0.00,,,0.00,WUHU216HW,2013-07-18 18:48:00,
2013-07-18 13:53:00,101.1,69.9,29.18,SSE,158,4.0,8.0,37,0.00,,,0.00,WUHU216HW,2013-07-18 18:53:00,
2013-07-18 13:58:00,99.1,68.1,29.18,SSE,158,7.6,7.6,37,0.00,,,0.00,WUHU216HW,2013-07-18 18:58:00,
2013-07-18 14:03:00,99.1,68.9,29.17,SSE,158,7.6,7.6,38,0.00,,,0.00,WUHU216HW,2013-07-18 19:03:00,
2013-07-18 14:08:00,98.4,68.3,29.17,WSW,248,0.0,7.6,38,0.00,,,0.00,WUHU216HW,2013-07-18 19:08:00,
2013-07-18 14:13:00,98.4,68.3,29.17,SE,135,0.0,0.0,38,0.00,,,0.00,WUHU216HW,2013-07-18 19:13:00,
2013-07-18 14:18:00,98.9,68.8,29.17,WSW,248,0.0,0.0,38,0.00,,,0.00,WUHU216HW,2013-07-18 19:18:00,
2013-07-18 14:23:00,100.9,69.7,29.17,WSW,248,7.8,7.8,37,0.00,,,0.00,WUHU216HW,2013-07-18 19:23:00,
2013-07-18 14:28:00,101.3,68.3,29.16,WSW,248,6.2,7.8,35,0.00,,,0.00,WUHU216HW,2013-07-18 19:28:00,
2013-07-18 14:33:00,101.1,69.0,29.16,WSW,248,4.4,7.8,36,0.00,,,0.00,WUHU216HW,2013-07-18 19:33:00,
2013-07-18 14:39:00,101.3,69.2,29.16,WSW,248,5.8,6.2,36,0.00,,,0.00,WUHU216HW,2013-07-18 19:39:00,
2013-07-18 14:44:00,101.1,69.0,29.16,SSE,158,0.0,5.8,36,0.00,,,0.00,WUHU216HW,2013-07-18 19:44:00,
2013-07-18 14:49:00,99.6,68.6,29.15,SSE,158,0.0,5.8,37,0.00,,,0.00,WUHU216HW,2013-07-18 19:49:00,
2013-07-18 14:54:00,99.6,68.6,29.15,SSE,158,0.0,0.0,37,0.00,,,0.00,WUHU216HW,2013-07-18 19:54:00,
2013-07-18 14:59:00,99.6,68.6,29.15,SSE,158,0.0,0.0,37,0.00,,,0.00,WUHU216HW,2013-07-18 19:59:00,
2013-07-18 15:04:00,98.2,69.0,29.14,WSW,248,0.0,0.0,39,0.00,,,0.00,WUHU216HW,2013-07-18 20:04:00,
2013-07-18 15:09:00,98.7,68.6,29.14,WSW,248,0.0,0.0,38,0.00,,,0.00,WUHU216HW,2013-07-18 20:09:00,
2013-07-18 15:14:00,98.7,68.6,29.14,WSW,248,0.0,0.0,38,0.00,,,0.00,WUHU216HW,2013-07-18 20:14:00,
2013-07-18 15:19:00,98.7,68.6,29.14,WSW,248,0.0,0.0,38,0.00,,,0.00,WUHU216HW,2013-07-18 20:19:00,
2013-07-18 15:24:00,98.7,67.8,29.13,WSW,248,0.0,0.0,37,0.00,,,0.00,WUHU216HW,2013-07-18 20:24:00,
2013-07-18 15:29:00,98.7,67.8,29.13,WSW,248,0.0,0.0,37,0.00,,,0.00,WUHU216HW,2013-07-18 20:29:00,
2013-07-18 15:34:00,99.3,68.3,29.13,WSW,248,0.0,0.0,37,0.00,,,0.00,WUHU216HW,2013-07-18 20:34:00,
2013-07-18 15:39:00,99.8,68.8,29.13,WSW,248,0.0,0.0,37,0.00,,,0.00,WUHU216HW,2013-07-18 20:39:00,
2013-07-18 15:44:00,99.8,68.8,29.13,WSW,248,0.0,0.0,37,0.00,,,0.00,WUHU216HW,2013-07-18 20:44:00,
2013-07-18 15:49:00,99.8,68.8,29.12,WSW,248,0.0,0.0,37,0.00,,,0.00,WUHU216HW,2013-07-18 20:49:00,
2013-07-18 15:54:00,99.8,68.8,29.12,WSW,248,0.0,0.0,37,0.00,,,0.00,WUHU216HW,2013-07-18 20:54:00,
2013-07-18 15:59:00,99.8,68.8,29.12,WSW,248,0.0,0.0,37,0.00,,,0.00,WUHU216HW,2013-07-18 20:59:00,
2013-07-18 16:04:00,99.8,68.8,29.12,WSW,248,0.0,0.0,37,0.00,,,0.00,WUHU216HW,2013-07-18 21:04:00,
2013-07-18 16:10:00,99.8,68.8,29.12,WSW,248,0.0,0.0,37,0.00,,,0.00,WUHU216HW,2013-07-18 21:10:00,
2013-07-18 16:19:00,99.1,68.1,29.12,WSW,248,0.0,0.0,37,0.00,,,0.00,WUHU216HW,2013-07-18 21:19:00,
2013-07-18 16:24:00,99.1,68.1,29.12,WSW,248,7.1,7.1,37,0.00,,,0.00,WUHU216HW,2013-07-18 21:24:00,
2013-07-18 16:29:00,99.1,68.1,29.11,WSW,248,7.1,7.1,37,0.00,,,0.00,WUHU216HW,2013-07-18 21:29:00,
2013-07-18 16:34:00,99.1,68.1,29.11,WSW,248,7.1,7.1,37,0.00,,,0.00,WUHU216HW,2013-07-18 21:34:00,
2013-07-18 16:39:00,100.2,69.1,29.11,WSW,248,0.0,7.1,37,0.00,,,0.00,WUHU216HW,2013-07-18 21:39:00,
2013-07-18 16:44:00,100.2,68.3,29.11,WSW,248,0.0,7.1,37,0.00,,,0.00,WUHU216HW,2013-07-18 21:44:00,
2013-07-18 16:49:00,100.2,69.1,29.11,WSW,248,0.0,0.0,37,0.00,,,0.00,WUHU216HW,2013-07-18 21:49:00,
2013-07-18 16:54:00,100.2,69.1,29.10,WSW,248,3.8,3.8,37,0.00,,,0.00,WUHU216HW,2013-07-18 21:54:00,
2013-07-18 16:59:00,100.2,69.1,29.10,WSW,248,3.8,3.8,37,0.00,,,0.00,WUHU216HW,2013-07-18 21:59:00,
2013-07-18 17:05:00,97.8,67.8,29.10,WSW,248,3.8,3.8,38,0.00,,,0.00,WUHU216HW,2013-07-18 22:05:00,
2013-07-18 17:10:00,98.2,68.1,29.10,WSW,248,10.5,10.5,38,0.00,,,0.00,WUHU216HW,2013-07-18 22:10:00,
2013-07-18 17:15:00,98.6,68.5,29.10,WSW,248,10.5,10.5,38,0.00,,,0.00,WUHU216HW,2013-07-18 22:15:00,
2013-07-18 17:20:00,99.1,68.9,29.09,WSW,248,10.5,10.5,38,0.00,,,0.00,WUHU216HW,2013-07-18 22:20:00,
2013-07-18 17:25:00,99.1,68.9,29.10,WSW,248,10.5,10.5,38,0.00,,,0.00,WUHU216HW,2013-07-18 22:25:00,
2013-07-18 17:30:00,99.1,68.9,29.09,WSW,248,10.5,10.5,38,0.00,,,0.00,WUHU216HW,2013-07-18 22:30:00,
2013-07-18 17:35:00,99.3,68.3,29.09,WSW,248,10.5,10.5,37,0.00,,,0.00,WUHU216HW,2013-07-18 22:35:00,
2013-07-18 17:40:00,99.3,68.3,29.09,WSW,248,0.0,10.5,37,0.00,,,0.00,WUHU216HW,2013-07-18 22:40:00,
2013-07-18 17:45:00,99.1,68.1,29.09,WSW,248,5.5,10.5,37,0.00,,,0.00,WUHU216HW,2013-07-18 22:45:00,
2013-07-18 17:50:00,98.9,68.0,29.09,WSW,248,1.7,5.5,37,0.00,,,0.00,WUHU216HW,2013-07-18 22:50:00,
2013-07-18 17:55:00,98.7,67.8,29.09,WSW,248,0.0,5.5,37,0.00,,,0.00,WUHU216HW,2013-07-18 22:55:00,
2013-07-18 18:00:00,98.4,67.5,29.08,WSW,248,0.0,1.7,37,0.00,,,0.00,WUHU216HW,2013-07-18 23:00:00,
2013-07-18 18:05:00,98.7,67.8,29.08,WSW,248,0.0,0.0,37,0.00,,,0.00,WUHU216HW,2013-07-18 23:05:00,
2013-07-18 18:10:00,98.9,67.8,29.08,WSW,248,0.0,4.2,37,0.00,,,0.00,WUHU216HW,2013-07-18 23:10:00,
2013-07-18 18:15:00,98.9,67.1,29.08,WSW,248,0.0,4.2,36,0.00,,,0.00,WUHU216HW,2013-07-18 23:15:00,
2013-07-18 18:20:00,99.1,67.3,29.08,WSW,248,0.0,0.0,36,0.00,,,0.00,WUHU216HW,2013-07-18 23:20:00,
2013-07-18 18:25:00,99.3,67.4,29.08,WSW,248,0.0,0.6,36,0.00,,,0.00,WUHU216HW,2013-07-18 23:25:00,
2013-07-18 18:30:00,99.6,67.8,29.07,WSW,248,0.0,0.6,36,0.00,,,0.00,WUHU216HW,2013-07-18 23:30:00,
2013-07-18 18:35:00,100.0,67.3,29.07,WSW,248,0.0,0.4,35,0.00,,,0.00,WUHU216HW,2013-07-18 23:35:00,
2013-07-18 18:40:00,100.5,67.1,29.07,WSW,248,0.0,0.0,34,0.00,,,0.00,WUHU216HW,2013-07-18 23:40:00,
2013-07-18 18:45:00,101.1,66.5,29.07,WSW,248,0.0,0.0,33,0.00,,,0.00,WUHU216HW,2013-07-18 23:45:00,
2013-07-18 18:50:00,100.9,66.4,29.07,WSW,248,6.2,6.2,33,0.00,,,0.00,WUHU216HW,2013-07-18 23:50:00,
2013-07-18 18:55:00,100.9,66.5,29.07,WSW,248,0.0,6.2,33,0.00,,,0.00,WUHU216HW,2013-07-18 23:55:00,
2013-07-18 19:00:00,101.3,67.5,29.07,WSW,248,0.0,8.2,34,0.00,,,0.00,WUHU216HW,2013-07-19 00:00:00,
2013-07-18 19:06:00,102.0,67.3,29.07,WSW,248,0.0,8.2,33,0.00,,,0.00,WUHU216HW,2013-07-19 00:06:00,
2013-07-18 19:11:00,102.3,68.4,29.07,WSW,248,0.0,0.0,34,0.00,,,0.00,WUHU216HW,2013-07-19 00:11:00,
2013-07-18 19:16:00,101.8,67.1,29.07,WSW,248,0.0,0.0,33,0.00,,,0.00,WUHU216HW,2013-07-19 00:16:00,
2013-07-18 19:21:00,101.4,66.8,29.07,WSW,248,0.0,0.0,33,0.00,,,0.00,WUHU216HW,2013-07-19 00:21:00,
2013-07-18 19:26:00,99.8,67.1,29.07,SSE,158,0.0,0.0,35,0.00,,,0.00,WUHU216HW,2013-07-19 00:26:00,
2013-07-18 19:31:00,97.7,66.0,29.07,SSE,158,0.0,0.0,36,0.00,,,0.00,WUHU216HW,2013-07-19 00:31:00,
2013-07-18 19:36:00,95.5,65.7,29.07,South,180,3.1,3.1,38,0.00,,,0.00,WUHU216HW,2013-07-19 00:36:00,
2013-07-18 19:41:00,93.3,65.1,29.07,South,180,0.0,3.1,40,0.00,,,0.00,WUHU216HW,2013-07-19 00:41:00,
2013-07-18 19:46:00,92.1,64.9,29.07,South,180,0.0,3.1,41,0.00,,,0.00,WUHU216HW,2013-07-19 00:46:00,
2013-07-18 19:51:00,91.2,64.8,29.07,South,180,0.0,0.0,42,0.00,,,0.00,WUHU216HW,2013-07-19 00:51:00,
2013-07-18 19:56:00,90.5,65.1,29.07,South,180,0.0,0.0,44,0.00,,,0.00,WUHU216HW,2013-07-19 00:56:00,
2013-07-18 20:01:00,89.7,65.4,29.07,South,180,0.0,0.0,45,0.00,,,0.00,WUHU216HW,2013-07-19 01:01:00,
2013-07-18 20:06:00,88.8,64.6,29.07,South,180,0.0,0.0,45,0.00,,,0.00,WUHU216HW,2013-07-19 01:06:00,
2013-07-18 20:11:00,88.8,65.9,29.07,South,180,0.0,0.0,47,0.00,,,0.00,WUHU216HW,2013-07-19 01:11:00,
2013-07-18 20:16:00,88.8,65.9,29.07,South,180,0.0,0.0,47,0.00,,,0.00,WUHU216HW,2013-07-19 01:16:00,
2013-07-18 20:21:00,86.7,65.3,29.07,South,180,0.0,0.0,49,0.00,,,0.00,WUHU216HW,2013-07-19 01:21:00,
2013-07-18 20:26:00,86.1,65.4,29.07,South,180,0.0,0.0,50,0.00,,,0.00,WUHU216HW,2013-07-19 01:26:00,
2013-07-18 20:31:00,85.6,65.4,29.07,South,180,0.0,0.0,51,0.00,,,0.00,WUHU216HW,2013-07-19 01:31:00,
2013-07-18 20:36:00,84.7,65.2,29.07,South,180,0.0,0.0,52,0.00,,,0.00,WUHU216HW,2013-07-19 01:36:00,
2013-07-18 20:41:00,84.5,65.0,29.07,South,180,0.0,0.0,52,0.00,,,0.00,WUHU216HW,2013-07-19 01:41:00,
2013-07-18 20:46:00,83.8,65.4,29.07,South,180,0.0,0.0,54,0.00,,,0.00,WUHU216HW,2013-07-19 01:46:00,
2013-07-18 20:51:00,83.8,65.4,29.07,South,180,0.0,0.0,54,0.00,,,0.00,WUHU216HW,2013-07-19 01:51:00,
2013-07-18 20:56:00,83.8,65.4,29.07,South,180,0.0,0.0,54,0.00,,,0.00,WUHU216HW,2013-07-19 01:56:00,
2013-07-18 21:01:00,82.2,64.8,29.07,South,180,0.0,0.0,56,0.00,,,0.00,WUHU216HW,2013-07-19 02:01:00,
2013-07-18 21:06:00,82.0,64.6,29.08,South,180,0.0,0.0,56,0.00,,,0.00,WUHU216HW,2013-07-19 02:06:00,
2013-07-18 21:11:00,80.9,64.2,29.08,South,180,0.0,0.0,57,0.00,,,0.00,WUHU216HW,2013-07-19 02:11:00,
2013-07-18 21:16:00,80.6,63.9,29.08,South,180,0.0,0.0,57,0.00,,,0.00,WUHU216HW,2013-07-19 02:16:00,
2013-07-18 21:21:00,79.5,63.9,29.08,South,180,0.0,0.0,59,0.00,,,0.00,WUHU216HW,2013-07-19 02:21:00,
2013-07-18 21:26:00,79.1,63.6,29.08,South,180,0.0,0.0,59,0.00,,,0.00,WUHU216HW,2013-07-19 02:26:00,
2013-07-18 21:31:00,78.8,64.2,29.08,South,180,0.0,0.0,61,0.00,,,0.00,WUHU216HW,2013-07-19 02:31:00,
2013-07-18 21:37:00,78.4,63.9,29.08,South,180,0.0,0.0,61,0.00,,,0.00,WUHU216HW,2013-07-19 02:37:00,
2013-07-18 21:42:00,78.0,63.5,29.08,South,180,0.0,0.0,61,0.00,,,0.00,WUHU216HW,2013-07-19 02:42:00,
2013-07-18 21:47:00,77.7,64.0,29.09,South,180,0.0,0.0,63,0.00,,,0.00,WUHU216HW,2013-07-19 02:47:00,
2013-07-18 21:52:00,77.5,64.3,29.09,South,180,0.0,0.0,64,0.00,,,0.00,WUHU216HW,2013-07-19 02:52:00,
2013-07-18 21:57:00,77.1,64.0,29.09,South,180,0.0,0.0,64,0.00,,,0.00,WUHU216HW,2013-07-19 02:57:00,
2013-07-18 22:02:00,76.8,63.6,29.09,South,180,0.0,0.0,64,0.00,,,0.00,WUHU216HW,2013-07-19 03:02:00,
2013-07-18 22:07:00,76.6,63.9,29.09,South,180,0.0,0.0,65,0.00,,,0.00,WUHU216HW,2013-07-19 03:07:00,
2013-07-18 22:12:00,76.2,63.6,29.09,South,180,0.0,0.0,65,0.00,,,0.00,WUHU216HW,2013-07-19 03:12:00,
2013-07-18 22:17:00,76.2,63.6,29.09,South,180,0.0,0.0,65,0.00,,,0.00,WUHU216HW,2013-07-19 03:17:00,
2013-07-18 22:22:00,75.9,64.1,29.09,South,180,0.0,0.0,67,0.00,,,0.00,WUHU216HW,2013-07-19 03:22:00,
2013-07-18 22:27:00,75.7,63.9,29.09,South,180,0.0,0.0,67,0.00,,,0.00,WUHU216HW,2013-07-19 03:27:00,
2013-07-18 22:32:00,75.3,64.0,29.09,South,180,0.0,0.0,68,0.00,,,0.00,WUHU216HW,2013-07-19 03:32:00,
2013-07-18 22:37:00,75.3,64.4,29.09,South,180,0.0,0.0,69,0.00,,,0.00,WUHU216HW,2013-07-19 03:37:00,
2013-07-18 22:42:00,75.0,64.1,29.09,South,180,0.0,0.0,69,0.00,,,0.00,WUHU216HW,2013-07-19 03:42:00,
2013-07-18 22:47:00,74.8,64.4,29.09,South,180,0.0,0.0,70,0.00,,,0.00,WUHU216HW,2013-07-19 03:47:00,
2013-07-18 22:52:00,74.8,64.4,29.09,South,180,0.0,0.0,70,0.00,,,0.00,WUHU216HW,2013-07-19 03:52:00,
2013-07-18 22:57:00,74.4,64.1,29.09,South,180,0.0,0.0,70,0.00,,,0.00,WUHU216HW,2013-07-19 03:57:00,
2013-07-18 23:01:00,74.4,64.1,29.08,South,180,0.0,0.0,70,0.00,,,0.00,WUHU216HW,2013-07-19 04:01:00,
2013-07-18 23:02:00,74.4,64.1,29.09,South,180,0.0,0.0,70,0.00,,,0.00,WUHU216HW,2013-07-19 04:02:00,
2013-07-18 23:03:00,74.3,63.9,29.09,South,180,0.0,0.0,70,0.00,,,0.00,WUHU216HW,2013-07-19 04:03:00,
2013-07-18 23:08:00,74.1,64.1,29.08,South,180,0.0,0.0,71,0.00,,,0.00,WUHU216HW,2013-07-19 04:08:00,
2013-07-18 23:13:00,73.9,64.0,29.08,South,180,0.0,0.0,71,0.00,,,0.00,WUHU216HW,2013-07-19 04:13:00,
2013-07-18 23:18:00,73.7,63.8,29.08,South,180,0.0,0.0,71,0.00,,,0.00,WUHU216HW,2013-07-19 04:18:00,
2013-07-18 23:23:00,73.5,63.6,29.08,South,180,0.0,0.0,71,0.00,,,0.00,WUHU216HW,2013-07-19 04:23:00,
2013-07-18 23:28:00,73.5,64.0,29.08,South,180,0.0,0.0,72,0.00,,,0.00,WUHU216HW,2013-07-19 04:28:00,
2013-07-18 23:33:00,73.4,63.8,29.08,South,180,0.0,0.0,72,0.00,,,0.00,WUHU216HW,2013-07-19 04:33:00,
2013-07-18 23:38:00,73.2,63.7,29.08,South,180,0.0,0.0,72,0.00,,,0.00,WUHU216HW,2013-07-19 04:38:00,
2013-07-18 23:43:00,73.0,63.9,29.08,South,180,0.0,0.0,73,0.00,,,0.00,WUHU216HW,2013-07-19 04:43:00,
2013-07-18 23:48:00,73.0,63.9,29.08,South,180,0.0,0.0,73,0.00,,,0.00,WUHU216HW,2013-07-19 04:48:00,
2013-07-18 23:53:00,73.0,63.9,29.08,South,180,0.0,0.0,73,0.00,,,0.00,WUHU216HW,2013-07-19 04:53:00,
2013-07-18 23:58:00,73.2,64.4,29.08,South,180,0.0,0.0,74,0.00,,,0.00,WUHU216HW,2013-07-19 04:58:00,